Regional Weather Roundup
Issued by NWS

Home | Current Version | Previous Version | Graphics & Text | Print | Product List | Glossary On
Versions: 1 2 3 4 5 6 7 8 9 10 11 12 13 14 15 16 17 18 19 20 21 22 23 24 25 26 27 28 29 30 31 32 33 34 35 36 37 38 39 40 41 42 43 44 45 46 47 48 49 50
253
ASUS44 KLIX 230001
RWRLA
LOUISIANA WEATHER ROUNDUP
NATIONAL WEATHER SERVICE NEW ORLEANS LA
700 PM CDT TUE APR 22 2014

NOTE: "FAIR" INDICATES FEW OR NO CLOUDS BELOW 12,000 FEET WITH NO
      SIGNIFICANT WEATHER AND/OR OBSTRUCTIONS TO VISIBILITY.
      SKY/WX - SKY CONDITION AND SIGNIFICANT WEATHER.
      TMP - AIR TEMPERATURE.    DP   - DEWPOINT TEMPERATURE.
      RH  - RELATIVE HUMIDITY.  PRES - PRESSURE.
      HX  - HEAT INDEX.         WCI  - WIND CHILL INDEX.

*  THESE STATIONS ARE NOT NWS OR FAA STATIONS AND ARE NOT UNDER
   NWS QUALITY CONTROL.

LAZ040-048-061>063-065-066-069-230100-
SOUTHEAST LOUISIANA

CITY           SKY/WX    TMP DP  RH WIND       PRES   REMARKS
N.O. AUDUBON     N/A     76  67  73 MISG        N/A
6HR MIN TEMP:  70; 6HR MAX TEMP:  79;

N.O. INTL ARPT PTCLDY    75  66  73 NW3       29.88F
6HR MIN TEMP:  70; 6HR MAX TEMP:  78; 6HR PCP: TRACE;

N.O. LAKEFRONT MOCLDY    73  66  78 W9        29.88F
6HR MIN TEMP:  70; 6HR MAX TEMP:  75;

N.O. DOWNTOWN* FAIR      77  63  61 CALM      29.89S
6HR MIN TEMP:  72; 6HR MAX TEMP:  79;

SLIDELL        CLOUDY    75  65  70 NW3       29.87F
6HR MIN TEMP:  69; 6HR MAX TEMP:  78;

BATON ROUGE    PTCLDY    77  59  53 NW5       29.89F
6HR MIN TEMP:  75; 6HR MAX TEMP:  82;

BOOTHVILLE     PTCLDY    73  67  81 W7        29.89S
6HR MIN TEMP:  71; 6HR MAX TEMP:  73; 6HR PCP: TRACE;

BELLE CHASSE   PTCLDY    73  66  78 CALM      29.88F
6HR MIN TEMP:  71; 6HR MAX TEMP:  76;

BOGALUSA*        N/A     76  62  63 NW6       29.90R
6HR MIN TEMP:  75; 6HR MAX TEMP:  81;

GALLIANO*      NOT AVBL
NEW ROADS*     NOT AVBL
GONZALES*      FAIR      77  62  59 N3        29.88S
6HR MIN TEMP:  69; 6HR MAX TEMP:  80;

HAMMOND*       NOT AVBL
HOUMA*         PTCLDY    75  64  69 W12       29.89F
PORT FOURCHON* CLEAR     73  68  83 W9        29.91F

$$

LAZ041-044-053-054-230100-
SOUTHWEST LOUISIANA

CITY           SKY/WX    TMP DP  RH WIND       PRES   REMARKS
LAKE CHARLES   CLEAR     81  60  48 N3        29.88F
6HR MIN TEMP:  80; 6HR MAX TEMP:  85;

LAFAYETTE      CLEAR     78  59  51 N9        29.90S
6HR MIN TEMP:  77; 6HR MAX TEMP:  82;

PATTERSON      CLEAR     75  70  83 W7        29.93S
6HR MIN TEMP:  70; 6HR MAX TEMP:  79;

SALT POINT       N/A     74  69  85 VRB6      29.89S
6HR MIN TEMP:  73; 6HR MAX TEMP:  77;

NEW IBERIA     CLEAR     77  60  55 N9        29.90S
6HR MIN TEMP:  75; 6HR MAX TEMP:  84;

CHENAULT AIRPK NOT AVBL

$$

LAZ027-028-230100-
CENTRAL LOUISIANA

CITY           SKY/WX    TMP DP  RH WIND       PRES   REMARKS
FORT POLK      PTCLDY    78  58  49 N7        29.91S
6HR MIN TEMP:  75; 6HR MAX TEMP:  81;

ALEXANDRIA INT CLEAR     76  61  59 N5        29.88F
6HR MIN TEMP:  75; 6HR MAX TEMP:  83;

ALEXANDRIA     CLEAR     80  60  50 CALM      29.90S
6HR MIN TEMP:  75; 6HR MAX TEMP:  84;


$$

LAZ001-002-230100-
NORTHWEST LOUISIANA

CITY           SKY/WX    TMP DP  RH WIND       PRES   REMARKS
SHREVEPORT     PTCLDY    80  57  45 N3        29.90F
6HR MIN TEMP:  76; 6HR MAX TEMP:  83;

BARKSDALE AFB  NOT AVBL
DTN SHREVEPORT CLEAR     79  56  45 NW3       29.90F
6HR MIN TEMP:  75; 6HR MAX TEMP:  82;


$$

LAZ014-016-230100-
NORTHEAST LOUISIANA

CITY           SKY/WX    TMP DP  RH WIND       PRES   REMARKS
MONROE         CLEAR     75  58  55 N6        29.92S
6HR MIN TEMP:  75; 6HR MAX TEMP:  80;

TALLULAH       CLEAR     76  60  57 N6        29.89F
6HR MIN TEMP:  74; 6HR MAX TEMP:  80;


$$




USA.gov is the U.S. government's official web portal to all federal, state and local government web resources and services.